This demonstration page uses our WeatherBlox Daily Observations layout. Learn more.

Left ArrowRight Arrow

40.92945, -100.16068

Hourly Observations for December 8, 2021

Temp ( °F °C ) Dew Point ( °F °C ) Humidity (%) Winds ( mph kmh ) Pressure ( in mb ) Visibility ( mi km ) Precip ( " mm )
12:15 am 00:15 Cloudy 34 1 18 -7.6 53 53 N N/A 30.00 1016 10 16 N/A
12:35 am 00:35 Partly Cloudy 33 0.7 18 -7.8 53 53 N N/A 29.99 1016 10 16 N/A
12:55 am 00:55 Clear 32 undefined 17 -8.2 54 54 N N/A 30.00 1016 10 16 N/A
1:15 am 01:15 Clear 31 -0.6 17 -8.5 56 56 N N/A 29.99 1016 10 16 N/A
1:35 am 01:35 Clear 31 -0.3 16 -8.7 54 54 N N/A 29.99 1016 10 16 N/A
1:55 am 01:55 Clear 28 -2.5 16 -8.9 62 62 N N/A 30.01 1016 10 16 N/A
2:15 am 02:15 Clear 27 -3 17 -8.4 67 67 N N/A 30.01 1016 10 16 N/A
2:35 am 02:35 Clear 24 -4.5 14 -9.8 67 67 N N/A 30.02 1017 10 16 N/A
2:55 am 02:55 Clear 21 -6.1 14 -9.9 75 75 N N/A 30.05 1018 10 16 N/A
3:15 am 03:15 Clear 21 -6.2 15 -9.5 78 78 N 5 7 30.05 1018 10 16 N/A
3:35 am 03:35 Clear 20 -6.9 14 -9.9 79 79 NNW 5 7 30.06 1018 10 16 N/A
3:55 am 03:55 Clear 20 -6.6 15 -9.7 79 79 WNW 6 9 30.05 1018 10 16 N/A
4:15 am 04:15 Clear 19 -7.2 14 -10 81 81 NW 6 9 30.05 1018 10 16 N/A
4:35 am 04:35 Clear 19 -7.5 14 -10.2 81 81 WNW 6 9 30.05 1018 10 16 N/A
4:55 am 04:55 Clear 19 -7.3 14 -10 81 81 NW 6 9 30.05 1018 10 16 N/A
5:15 am 05:15 Clear 19 -7.4 14 -10 82 82 W 6 9 30.05 1018 10 16 N/A
5:35 am 05:35 Clear 20 -6.5 15 -9.3 81 81 W 7 11 30.05 1018 10 16 N/A
5:55 am 05:55 Clear 21 -5.9 15 -9.2 78 78 W 7 11 30.04 1017 10 16 N/A
6:15 am 06:15 Clear 22 -5.8 16 -8.9 79 79 W 9 15 30.05 1017 10 16 N/A
6:35 am 06:35 Clear 23 -5 17 -8.5 77 77 W 8 13 30.03 1017 10 16 N/A
6:55 am 06:55 Clear 22 -5.6 16 -8.8 78 78 WNW 6 9 30.03 1017 10 16 N/A
7:15 am 07:15 Clear 22 -5.7 16 -8.8 79 79 WNW 6 9 30.04 1017 10 16 N/A
7:35 am 07:35 Clear 22 -5.8 16 -9 78 78 WNW 6 9 30.04 1017 10 16 N/A
7:55 am 07:55 Sunny 21 -6.2 16 -9 81 81 NW 3 6 30.05 1018 7 11 N/A
8:15 am 08:15 Sunny 21 -6 16 -8.8 81 81 NW 5 7 30.04 1017 10 16 N/A
8:35 am 08:35 Sunny 23 -5.2 18 -7.8 82 82 W 6 9 30.04 1017 10 16 N/A
8:55 am 08:55 Sunny 28 -2.3 20 -6.5 73 73 W 3 6 30.01 1016 10 16 N/A
9:15 am 09:15 Sunny 31 -0.7 21 -6.3 66 66 WNW 6 9 29.99 1016 10 16 N/A
9:35 am 09:35 Sunny 32 0.1 21 -6 64 64 W 3 6 30.00 1016 10 16 N/A
9:55 am 09:55 Sunny 35 1.4 22 -5.8 59 59 N N/A 29.97 1015 10 16 N/A
10:15 am 10:15 Sunny 37 2.9 22 -5.5 54 54 N N/A 29.96 1014 10 16 N/A
10:35 am 10:35 Sunny 40 4.6 22 -5.3 49 49 N N/A 29.93 1014 10 16 N/A
10:55 am 10:55 Sunny 42 5.8 23 -5 46 46 SSE 5 7 29.89 1012 10 16 N/A
11:15 am 11:15 Sunny 45 7.4 24 -4.5 43 43 SE 6 9 29.86 1011 10 16 N/A
11:35 am 11:35 Sunny 48 8.7 25 -4.1 41 41 SSE 7 11 29.83 1010 10 16 N/A
11:55 am 11:55 Sunny 51 10.4 25 -3.7 37 37 SSE 8 13 29.80 1009 10 16 N/A
12:15 pm 12:15 Sunny 53 11.6 26 -3.4 35 35 SE 8 13 29.77 1008 10 16 N/A
12:35 pm 12:35 Sunny 56 13.1 26 -3.1 33 33 SSE 13 20 29.75 1008 10 16 N/A
12:55 pm 12:55 Sunny 57 13.9 25 -3.7 30 30 SSE 15 24 29.74 1007 10 16 N/A
1:15 pm 13:15 Sunny 56 13.6 24 -4.2 29 29 S 18 30 29.73 1007 10 16 N/A
1:35 pm 13:35 Sunny 56 13.4 25 -4.1 30 30 S 17 28 29.71 1006 10 16 N/A
1:55 pm 13:55 Sunny 56 13.5 24 -4.3 29 29 S 18 30 29.68 1005 10 16 N/A
2:15 pm 14:15 Sunny 55 12.9 24 -4.6 29 29 S 16 26 29.66 1005 10 16 N/A
2:35 pm 14:35 Sunny 56 13.1 24 -4.3 30 30 SSE 14 22 29.64 1004 10 16 N/A
2:55 pm 14:55 Sunny 56 13.4 25 -4.1 30 30 SSE 14 22 29.62 1003 10 16 N/A
3:15 pm 15:15 Sunny 56 13.6 24 -4.5 28 28 S 17 28 29.61 1003 10 16 N/A
3:35 pm 15:35 Sunny 55 13 24 -4.4 30 30 SSE 15 24 29.59 1002 10 16 N/A
3:55 pm 15:55 Sunny 54 12 24 -4.3 32 32 SSE 14 22 29.59 1002 10 16 N/A
4:15 pm 16:15 Sunny 52 11.1 25 -4.1 34 34 SSE 13 20 29.60 1002 10 16 N/A
4:35 pm 16:35 Sunny 50 9.9 24 -4.2 37 37 SSE 12 19 29.60 1002 10 16 N/A
4:55 pm 16:55 Sunny 48 8.8 25 -4 41 41 SSE 9 15 29.61 1003 10 16 N/A
5:15 pm 17:15 Clear 47 8.1 25 -4 43 43 SSE 9 15 29.61 1003 10 16 N/A
5:35 pm 17:35 Clear 47 8.5 25 -4 41 41 SSE 10 17 29.60 1003 10 16 N/A
5:55 pm 17:55 Clear 49 9.6 24 -4.2 38 38 S 12 19 29.59 1002 10 16 N/A
6:15 pm 18:15 Clear 50 10.1 24 -4.5 36 36 S 14 22 29.57 1001 10 16 N/A
6:35 pm 18:35 Clear 50 10 24 -4.5 36 36 S 14 22 29.57 1001 10 16 N/A
6:55 pm 18:55 Clear 50 9.8 24 -4.5 37 37 S 14 22 29.56 1001 10 16 N/A
7:15 pm 19:15 Clear 49 9.6 24 -4.4 37 37 S 12 19 29.55 1001 10 16 N/A
7:35 pm 19:35 Clear 49 9.5 24 -4.5 37 37 S 13 20 29.55 1001 10 16 N/A
11:15 pm 23:15 Clear 43 6.1 24 -4.3 48 48 S 9 15 29.52 1000 10 16 N/A
11:35 pm 23:35 Clear 43 6 24 -4.5 47 47 S 6 9 29.52 1000 10 16 N/A
11:55 pm 23:55 Clear 43 6.2 24 -4.5 47 47 S 7 11 29.51 999 10 16 N/A

Powered by AerisWeather